CXADT SUPE-SUMO

Flight info

Callsign CXADT
Flight time N/A
Altitude 8000
Route LDS DCT AROMO
Aircraft C310/L-SDFGR/S

Departure

Time 2026-05-07 17:17
Airport El Jagüel / Punta del Este Airport (SUPE)

Arrival

Time N/A
Airport Cerro Largo International Airport (SUMO)
Time Latitude Longitude Altitude Speed Heading
2026-05-07 17:16 -34.67785 -54.87324 4895 ft 133 kts
2026-05-07 17:17 -34.66891 -54.87067 5068 ft 131 kts
2026-05-07 17:17 -34.66006 -54.86812 5229 ft 127 kts
2026-05-07 17:17 -34.65166 -54.86571 5381 ft 123 kts
2026-05-07 17:17 -34.64335 -54.86334 5555 ft 122 kts
2026-05-07 17:18 -34.63511 -54.86098 5726 ft 121 kts
2026-05-07 17:18 -34.62696 -54.85864 5895 ft 119 kts
2026-05-07 17:18 -34.61895 -54.85634 6058 ft 118 kts
2026-05-07 17:18 -34.61107 -54.85409 6210 ft 115 kts
2026-05-07 17:19 -34.60337 -54.85188 6373 ft 112 kts
2026-05-07 17:19 -34.59587 -54.84973 6528 ft 109 kts
2026-05-07 17:19 -34.58862 -54.84766 6672 ft 105 kts
2026-05-07 17:19 -34.58154 -54.84563 6786 ft 104 kts
2026-05-07 17:20 -34.57449 -54.84363 6891 ft 103 kts
2026-05-07 17:20 -34.56732 -54.84159 6942 ft 108 kts
2026-05-07 17:20 -34.55993 -54.83948 7003 ft 110 kts
2026-05-07 17:20 -34.55235 -54.83731 7065 ft 113 kts
2026-05-07 17:21 -34.54466 -54.83512 7123 ft 114 kts
2026-05-07 17:21 -34.53696 -54.83290 7177 ft 116 kts
2026-05-07 17:21 -34.52906 -54.83065 7235 ft 117 kts
2026-05-07 17:21 -34.52111 -54.82837 7295 ft 118 kts
2026-05-07 17:22 -34.51311 -54.82610 7346 ft 118 kts
2026-05-07 17:22 -34.50505 -54.82379 7395 ft 119 kts
2026-05-07 17:22 -34.49703 -54.82149 7441 ft 118 kts
2026-05-07 17:22 -34.48914 -54.81924 7495 ft 117 kts
2026-05-07 17:23 -34.48125 -54.81698 7546 ft 116 kts
2026-05-07 17:23 -34.47335 -54.81473 7590 ft 116 kts
2026-05-07 17:23 -34.46546 -54.81249 7640 ft 116 kts
2026-05-07 17:23 -34.45760 -54.81024 7690 ft 116 kts
2026-05-07 17:24 -34.44977 -54.80800 7736 ft 115 kts
2026-05-07 17:24 -34.44200 -54.80579 7776 ft 114 kts
2026-05-07 17:24 -34.43435 -54.80360 7818 ft 112 kts